London-Corbin, KY

11:02 AM EDT on April 29, 2017 (GMT -0400)
London-Corbin / McKee

Weather History for KLOZ - April, 2013

Change the Weather History Date:

Thursday, April 18, 2013

  Actual Average Record
Temperature  
Mean Temperature 70 °F 57 °F  
Max Temperature 81 °F 70 °F 88 °F (1955)
Min Temperature 58 °F 45 °F 28 °F (1983)
Degree Days  
Heating Degree Days 0 8  
Month to date heating degree days 160 194  
Since 1 July heating degree days 4300 4019  
Cooling Degree Days 5 1  
Month to date cooling degree days 20 10  
Year to date cooling degree days 20 13  
Growing Degree Days 19 (Base 50)    
Moisture  
Dew Point 54 °F    
Average Humidity 66    
Maximum Humidity 93    
Minimum Humidity 39    
Precipitation  
Precipitation 0.00 in 0.13 in 1.46 in (1998)
Month to date precipitation 3.20 2.34  
Year to date precipitation 15.44  
Sea Level Pressure  
Sea Level Pressure 29.91 in    
Wind  
Wind Speed 10 mph (South)    
Max Wind Speed 25 mph    
Max Gust Speed 36 mph    
Visibility 10 miles    
Events      
T = Trace of Precipitation, MM = Missing Value Source: NWS Daily Summary

Daily Weather History Graph

Daily Weather History Graph

Search for Another Location

Airport or City:

Trip Planner

Search our weather history database for the weather conditions in past years. The results will help you decide how hot, cold, wet, or windy it might be!

Date:

Astronomy

Apr. 18, 2013 Rise Set
Actual Time 6:57 AM EDT 8:14 PM EDT
Civil Twilight 6:30 AM EDT 8:41 PM EDT
Nautical Twilight 5:58 AM EDT 9:13 PM EDT
Astronomical Twilight 5:24 AM EDT 9:47 PM EDT
Moon 1:09 PM EDT (4/18) 2:26 AM EDT (4/18)
Length of Visible Light 14h 10m
Length of Day
13h 16m
First Quarter, 51% of the Moon is Illuminated
Apr 18
First Quarter
Apr 25
Full
May 2
Last Quarter
May 9
New
May 18
First Quarter

Hourly Weather History & Observations

Time (EDT) Temp. Heat Index Dew Point Humidity Pressure Visibility Wind Dir Wind Speed Gust Speed Precip Events Conditions
12:53 AM 61.0 °F - 54.0 °F 78% 30.02 in 10.0 mi SSE 3.5 mph - N/A   Clear
1:53 AM 61.0 °F - 55.0 °F 81% 30.00 in 10.0 mi SSE 3.5 mph - N/A   Clear
2:53 AM 60.1 °F - 55.0 °F 83% 29.99 in 10.0 mi Calm Calm - N/A   Clear
3:53 AM 57.9 °F - 55.0 °F 90% 29.98 in 10.0 mi Calm Calm - N/A   Clear
4:53 AM 60.1 °F - 55.9 °F 86% 29.98 in 10.0 mi Calm Calm - N/A   Clear
5:53 AM 62.1 °F - 55.9 °F 80% 29.98 in 10.0 mi South 4.6 mph - N/A   Clear
6:53 AM 63.0 °F - 55.9 °F 78% 29.98 in 10.0 mi South 4.6 mph - N/A   Clear
7:53 AM 64.9 °F - 55.9 °F 73% 29.99 in 10.0 mi South 5.8 mph - N/A   Clear
8:53 AM 68.0 °F - 57.9 °F 70% 29.99 in 10.0 mi SSE 8.1 mph - N/A   Clear
9:53 AM 71.1 °F - 57.9 °F 63% 29.99 in 10.0 mi South 10.4 mph 21.9 mph N/A   Clear
10:53 AM 73.9 °F - 57.9 °F 57% 29.99 in 10.0 mi SSW 17.3 mph 25.3 mph N/A   Clear
11:53 AM 77.0 °F - 57.0 °F 50% 29.97 in 10.0 mi South 19.6 mph 27.6 mph N/A   Clear
12:53 PM 77.0 °F - 55.0 °F 47% 29.94 in 10.0 mi South 15.0 mph 26.5 mph N/A   Mostly Cloudy
1:53 PM 79.0 °F - 54.0 °F 42% 29.92 in 10.0 mi South 21.9 mph 32.2 mph N/A   Partly Cloudy
2:53 PM 78.1 °F - 55.0 °F 45% 29.91 in 10.0 mi South 9.2 mph 28.8 mph N/A   Mostly Cloudy
3:53 PM 80.1 °F 79.9 °F 53.1 °F 39% 29.87 in 10.0 mi South 16.1 mph 28.8 mph N/A   Scattered Clouds
4:53 PM 81.0 °F 80.5 °F 54.0 °F 39% 29.85 in 10.0 mi South 17.3 mph 24.2 mph N/A   Scattered Clouds
5:53 PM 79.0 °F - 51.1 °F 38% 29.84 in 10.0 mi South 15.0 mph 28.8 mph N/A   Clear
6:53 PM 77.0 °F - 50.0 °F 39% 29.82 in 10.0 mi South 12.7 mph 18.4 mph N/A   Clear
7:53 PM 75.9 °F - 50.0 °F 40% 29.81 in 10.0 mi South 10.4 mph - N/A   Clear
8:53 PM 73.9 °F - 51.1 °F 45% 29.80 in 10.0 mi South 8.1 mph - N/A   Clear
9:53 PM 73.0 °F - 51.1 °F 46% 29.79 in 10.0 mi South 12.7 mph 18.4 mph N/A   Clear
10:53 PM 73.0 °F - 52.0 °F 48% 29.76 in 10.0 mi South 8.1 mph 18.4 mph N/A   Clear
11:53 PM 73.0 °F - 53.1 °F 49% 29.73 in 10.0 mi South 15.0 mph 20.7 mph N/A   Clear